Search for airport 
image banner adimage banner ad
image banner ad

DAON - Tlemcen / Zenata-Messali El Hadj

Located in Tlemcen, Algeria

ICAO - DAON, IATA - TLM

Data provided by Airmate  

General information

Coordinates: N35°0'55" W1°27'3"
Elevation is 813 feet MSL.
 
View others Airports in Tlemcen Province

Operational data

Open for public use
Current time UTC:
Current local time:
Weather
METAR: DAON 010000Z 00000KT 7000 SCT010 13/12 Q1025
TAF: TAF DAON 312300Z 0100/0124 VRB02KT 9999 FEW010 TEMPO 0103/0108 2000 BR BKN010 BECMG 0108/0110 6000 SCT016 BECMG 0111/0114 34010KT CAVOK BECMG 0118/0121 VRB02KT
View NOTAMs / SUP AIP / TFR affecting this airport [VIEW]
Communications frequencies: [VIEW]

Runways:

RWY identifierQFULength (ft)Width (ft)SurfaceLDA (ft)
0769°8530148ASP
25249°8530148

Airport contact information

Address: Tlemcen Algeria

Satellite view of DAON